Weather in Planos

Greece     37°48′56″N   20°51′54″E
temp.,
°C
wind,
m/s
gust,
m/s
humid.,
%
clouds,
%
prec.,
mm/h
press.,
hPa
HPBL,
m
8 august, mon
mon800:00+26ene34762 0.0 100963
03:00+26ene33745 0.0 100956
06:00+26nne586164 0.0 1009288
09:00+27ne585760 0.0 1010361
12:00+30ne78401 0.0 1011773
15:00+32nne57340 0.0 10101221
18:00+30nw88472 0.0 1010690
21:00+28n45640 0.0 101072
9 august, tue
tue900:00+27nne33610 0.0 101149
03:00+26n33590 0.0 101158
06:00+25nne46730 0.0 1010163
09:00+29nne59500 0.0 1011488
12:00+32ne69320 0.0 1012886
15:00+31nw57420 0.0 10111573
18:00+29nw711542 0.0 1010382
21:00+27nw711690 0.0 1011202
10 august, wed
wed1000:00+26nw810790 0.0 1011203
03:00+25nnw67760 0.0 1010153
06:00+25nw34820 0.0 1011144
09:00+28nw11600 0.0 1011251
12:00+31nw43500 0.0 10111130
15:00+30wnw76571 0.0 1011730
18:00+28nw810724 0.0 1010319
21:00+26nw710815 0.0 1010273
11 august, thu
thu1100:00+25nw45805 0.0 1011200
03:00+25nw45825 0.0 1011216
06:00+25nw448276 0.0 1010197
09:00+27nnw11625 0.0 1011259
12:00+31wsw1149100 0.0 1011846
15:00+30wnw545961 0.0 1011700
18:00+28wnw54675 0.0 1011563
21:00+26n23785 0.0 1012143
12 august, fri
fri1200:00+25ne11765 0.0 101248
03:00+24nnw11715 0.0 101151
06:00+24nne22735 0.0 1011113
09:00+27ne22555 0.0 1012266
12:00+30w22435 0.0 1012727
15:00+30w53515 0.0 1012935
18:00+28wnw44615 0.0 1012527
21:00+26nw11700 0.0 101341